Location: Brabourne
(51.1333°N, 1.0000°E)
Time: 10:36:38
(UTC+00:00)

ADEOS Rocket - Pass Details

Date: 23 October 2021
Orbit: 858 x 1307 km, 98.8° (Epoch: 26 November)

Event Time Altitude Azimuth Distance (km) Brightness Sun altitude
Exits shadow 02:36:43 11° 329° (NNW) 3,104 5.6 -36.6°
Drops below altitude 10° 02:36:51 10° 330° (NNW) 3,144 5.6 -36.6°
Sets 02:39:49 0° 340° (NNW) 4,072 6.4 -36.2°
